Flag for Germany Weather past 2 weeks in Saarbrücken, Saarland, Germany

Now
64 °F

Sunny.


Feels Like: 64 °F
Forecast: 62 / 87 °F
Wind: 2 mph from North

Location: Saarbruecken / Ensheim

Current Time: Aug 2, 2015 at 9:23:03 AM

Latest Report: Aug 2, 2015 at 8:50 AM


Visibility: 10 mi

Pressure: 30.12 "Hg

Humidity: 64%

Dew point: 52 °F

Location of SaarbrückenLocation

Historic Weather in Saarbrücken — Graph

°F

Saarbrücken temperature yesterday

Maximum temperature yesterday: 79 °F (at 6:20 PM)
Minimum temperature yesterday: 55 °F (at 6:50 AM)
Average temperature yesterday: 67 °F

Past Weeks' High & Low Weather Summary

 TemperatureHumidityPressure
High88 °F (Jul 21, 5:20 PM)94% (Jul 25, 3:50 AM)30.12 "Hg (Jul 25, 3:50 AM)
Low45 °F (Jul 26, 5:20 AM)26% (Aug 1, 4:50 PM)29.68 "Hg (Jul 24, 8:50 PM)
Average66 °F61%29.94 "Hg
* Reported Jul 18 8:20 AM — Aug 2 8:20 AM, Saarbrücken, Weather by CustomWeather, © 2015

Note: Actual official high and low records may vary slightly from our data, if they occured in-between our weather recording intervals... More about our weather records

Advertising

Saarbrücken weather history for previous 24 hours

 ConditionsComfort  
Time TempWeatherWind HumidityBarometerVisibility
8:20 AM
Sun, Aug 2
61 °FSunny.1 mph72%30.12 "Hg10 mi
7:50 AM57 °FFog.2 mph82%30.12 "HgN/A
7:20 AM55 °FFog.No wind82%30.12 "HgN/A
6:50 AM52 °FFog.3 mph88%30.09 "HgN/A
6:20 AM52 °FFog.1 mph88%30.09 "HgN/A
5:50 AM52 °FFog.1 mph88%30.09 "HgN/A
5:20 AM54 °FClear.1 mph82%30.09 "Hg10 mi
4:50 AM54 °FClear.1 mph88%30.07 "Hg10 mi
4:20 AM54 °FClear.1 mph82%30.07 "Hg10 mi
3:50 AM55 °FClear.1 mph82%30.07 "Hg10 mi
3:20 AM55 °FClear.1 mph82%30.07 "Hg10 mi
2:20 AM57 °FClear.1 mph77%30.07 "Hg10 mi
1:50 AM57 °FClear.1 mph77%30.07 "Hg10 mi
1:20 AM59 °FClear.1 mph72%30.04 "Hg10 mi
12:50 AM61 °FClear.1 mph68%30.04 "Hg10 mi
12:20 AM63 °FClear.1 mph68%30.04 "Hg10 mi
11:20 PM
Sat, Aug 1
64 °FPassing clouds.5 mph64%30.04 "HgN/A
10:50 PM66 °FPassing clouds.9 mph60%30.04 "HgN/A
10:20 PM68 °FClear.9 mph53%30.04 "Hg10 mi
9:50 PM68 °FSunny.6 mph49%30.01 "Hg10 mi
9:20 PM68 °FPassing clouds.5 mph40%30.01 "HgN/A
8:50 PM70 °FSunny.3 mph33%29.98 "Hg10 mi
8:20 PM73 °FSunny.7 mph29%29.98 "Hg10 mi
7:50 PM77 °FPassing clouds.8 mph26%29.98 "HgN/A
7:20 PM77 °FPassing clouds.7 mph28%29.95 "HgN/A
6:50 PM77 °FPassing clouds.7 mph28%29.95 "HgN/A
6:20 PM79 °FPassing clouds.7 mph28%29.95 "HgN/A
5:50 PM77 °FPassing clouds.5 mph28%29.95 "HgN/A
5:20 PM77 °FPassing clouds.7 mph26%29.95 "HgN/A
4:50 PM77 °FPassing clouds.6 mph26%29.95 "HgN/A
4:20 PM77 °FPassing clouds.8 mph28%29.95 "HgN/A
3:50 PM77 °FPassing clouds.9 mph30%29.95 "HgN/A
3:20 PM77 °FSunny.6 mph32%29.95 "Hg10 mi
2:50 PM77 °FSunny.6 mph32%29.98 "Hg10 mi
2:20 PM73 °FSunny.3 mph36%29.95 "Hg10 mi
1:50 PM73 °FSunny.6 mph38%29.98 "Hg10 mi
1:20 PM72 °FSunny.7 mph38%29.98 "Hg10 mi
12:50 PM73 °FPassing clouds.6 mph36%29.95 "HgN/A
12:20 PM70 °FPassing clouds.6 mph38%29.95 "HgN/A
11:50 AM70 °FSunny.3 mph40%29.98 "Hg10 mi
11:20 AM70 °FSunny.3 mph40%29.98 "Hg10 mi
10:50 AM68 °FPassing clouds.5 mph43%29.98 "HgN/A
10:20 AM66 °FPassing clouds.5 mph46%29.98 "HgN/A
9:50 AM64 °FPassing clouds.3 mph49%29.98 "HgN/A
9:20 AM63 °FPassing clouds.5 mph49%29.95 "HgN/A
Weather by CustomWeather, © 2015

See weather overviewHow to use our weather pages